AVA11 MROC-MSLP

Flight info

Callsign AVA11
Flight time 1h 4m
Altitude 32000
Route NANJO3U ULAPO DCT ALTEG UG436 AMUVO AMUVO2M
Aircraft A320/M-SDE3FGHIRWY/LB1

Departure

Time 2026-05-03 22:53
Airport Juan Santamaría International Airport (MROC)

Arrival

Time 2026-05-03 23:58
Airport El Salvador International Airport Saint Óscar Arnulfo Romero y Galdámez (MSLP)
Time Latitude Longitude Altitude Speed Heading
2026-05-03 22:30 9.99714 -84.20453 3035 ft 0 kts 339°
2026-05-03 22:45 9.99704 -84.20449 3034 ft 4 kts 339°
2026-05-03 22:45 9.99682 -84.20441 3036 ft 2 kts 339°
2026-05-03 22:46 9.99663 -84.20430 3034 ft 4 kts 284°
2026-05-03 22:46 9.99666 -84.20407 3033 ft 3 kts 249°
2026-05-03 22:46 9.99674 -84.20387 3034 ft 0 kts 249°
2026-05-03 22:48 9.99657 -84.20432 3033 ft 13 kts 249°
2026-05-03 22:49 9.99622 -84.20525 3034 ft 13 kts 249°
2026-05-03 22:49 9.99596 -84.20594 3036 ft 7 kts 249°
2026-05-03 22:49 9.99570 -84.20664 3034 ft 16 kts 249°
2026-05-03 22:49 9.99530 -84.20771 3034 ft 15 kts 249°
2026-05-03 22:50 9.99485 -84.20890 3033 ft 25 kts 249°
2026-05-03 22:50 9.99404 -84.21105 3009 ft 40 kts 249°
2026-05-03 22:50 9.99322 -84.21326 2996 ft 32 kts 249°
2026-05-03 22:50 9.99240 -84.21546 2979 ft 35 kts 249°
2026-05-03 22:51 9.99173 -84.21718 2969 ft 21 kts 251°
2026-05-03 22:51 9.99119 -84.21870 2959 ft 24 kts 249°
2026-05-03 22:51 9.99105 -84.22033 2956 ft 24 kts 279°
2026-05-03 22:51 9.99061 -84.22182 2943 ft 21 kts 239°
2026-05-03 22:52 9.98965 -84.22189 2949 ft 12 kts 156°
2026-05-03 22:52 9.98921 -84.22146 2946 ft 6 kts 93°
2026-05-03 22:52 9.98930 -84.22110 2951 ft 11 kts 70°
2026-05-03 22:52 9.99047 -84.21801 2971 ft 82 kts 69°
2026-05-03 22:53 9.99321 -84.21068 3009 ft 138 kts 69°
2026-05-03 22:53 9.99714 -84.20027 3220 ft 168 kts 64°
2026-05-03 22:53 10.00487 -84.19194 3875 ft 167 kts 18°
2026-05-03 22:53 10.01640 -84.19237 4477 ft 173 kts 341°
2026-05-03 22:54 10.02767 -84.19739 4919 ft 185 kts 335°
2026-05-03 22:54 10.03886 -84.20486 5096 ft 207 kts 320°
2026-05-03 22:54 10.04934 -84.21604 5247 ft 230 kts 309°
2026-05-03 22:54 10.05875 -84.22987 5519 ft 255 kts 300°
2026-05-03 22:55 10.06606 -84.24720 5936 ft 275 kts 291°
2026-05-03 22:55 10.07286 -84.26568 6666 ft 282 kts 292°
2026-05-03 22:55 10.07985 -84.28439 7409 ft 284 kts 292°
2026-05-03 22:55 10.08692 -84.30332 8134 ft 291 kts 291°
2026-05-03 22:56 10.09405 -84.32246 8825 ft 293 kts 291°
2026-05-03 22:56 10.10178 -84.34177 9553 ft 297 kts 298°
2026-05-03 22:56 10.11336 -84.35921 10226 ft 299 kts 313°
2026-05-03 22:56 10.12893 -84.37409 10453 ft 316 kts 321°
2026-05-03 22:57 10.14628 -84.38897 10605 ft 334 kts 320°
2026-05-03 22:57 10.16437 -84.40453 11026 ft 345 kts 320°
2026-05-03 22:57 10.18291 -84.42048 11617 ft 352 kts 320°
2026-05-03 22:57 10.20152 -84.43657 12246 ft 355 kts 321°
2026-05-03 22:58 10.22053 -84.45305 12844 ft 365 kts 320°
2026-05-03 22:58 10.23986 -84.46975 13518 ft 365 kts 320°
2026-05-03 22:58 10.25926 -84.48651 14125 ft 368 kts 320°
2026-05-03 22:58 10.27887 -84.50351 14714 ft 372 kts 320°
2026-05-03 22:59 10.29863 -84.52064 15289 ft 375 kts 320°
2026-05-03 22:59 10.31857 -84.53794 15842 ft 379 kts 320°
2026-05-03 22:59 10.33869 -84.55542 16398 ft 382 kts 320°
2026-05-03 22:59 10.35896 -84.57304 16926 ft 385 kts 320°
2026-05-03 23:00 10.37938 -84.59078 17449 ft 388 kts 320°
2026-05-03 23:00 10.40003 -84.60874 17978 ft 392 kts 319°
2026-05-03 23:00 10.42080 -84.62685 18499 ft 395 kts 319°
2026-05-03 23:00 10.44176 -84.64503 18998 ft 398 kts 319°
2026-05-03 23:01 10.46286 -84.66332 19497 ft 400 kts 319°
2026-05-03 23:01 10.47693 -84.67551 19813 ft 402 kts 320°
2026-05-03 23:01 10.49826 -84.69397 20282 ft 404 kts 320°
2026-05-03 23:01 10.51973 -84.71262 20737 ft 408 kts 320°
2026-05-03 23:02 10.54134 -84.73142 21202 ft 410 kts 319°
2026-05-03 23:02 10.56302 -84.75032 21651 ft 412 kts 319°
2026-05-03 23:02 10.58484 -84.76932 22101 ft 414 kts 319°
2026-05-03 23:02 10.60681 -84.78845 22525 ft 417 kts 319°
2026-05-03 23:03 10.62893 -84.80768 22936 ft 419 kts 319°
2026-05-03 23:03 10.65114 -84.82699 23339 ft 422 kts 319°
2026-05-03 23:03 10.67347 -84.84641 23742 ft 424 kts 319°
2026-05-03 23:03 10.69590 -84.86594 24123 ft 425 kts 319°
2026-05-03 23:04 10.71839 -84.88549 24473 ft 427 kts 319°
2026-05-03 23:04 10.74111 -84.90520 24821 ft 430 kts 319°
2026-05-03 23:04 10.76389 -84.92496 25167 ft 431 kts 319°
2026-05-03 23:04 10.78676 -84.94486 25513 ft 433 kts 319°
2026-05-03 23:05 10.80969 -84.96485 25851 ft 435 kts 319°
2026-05-03 23:05 10.83269 -84.98491 26183 ft 436 kts 319°
2026-05-03 23:05 10.85578 -85.00505 26488 ft 438 kts 319°
2026-05-03 23:05 10.87896 -85.02527 26782 ft 440 kts 319°
2026-05-03 23:06 10.90225 -85.04558 27067 ft 442 kts 319°
2026-05-03 23:06 10.92561 -85.06598 27344 ft 443 kts 319°
2026-05-03 23:06 10.94906 -85.08645 27632 ft 445 kts 319°
2026-05-03 23:06 10.97228 -85.10671 27901 ft 446 kts 319°
2026-05-03 23:07 10.99589 -85.12731 28173 ft 448 kts 319°
2026-05-03 23:07 11.01961 -85.14800 28421 ft 450 kts 319°
2026-05-03 23:07 11.04225 -85.17012 28671 ft 451 kts 311°
2026-05-03 23:07 11.06105 -85.19572 28913 ft 453 kts 301°
2026-05-03 23:08 11.07650 -85.22374 29145 ft 455 kts 299°
2026-05-03 23:08 11.09178 -85.25201 29376 ft 456 kts 299°
2026-05-03 23:08 11.10716 -85.28029 29608 ft 458 kts 299°
2026-05-03 23:08 11.12265 -85.30869 29827 ft 459 kts 299°
2026-05-03 23:09 11.13824 -85.33712 30059 ft 461 kts 299°
2026-05-03 23:09 11.15388 -85.36566 30271 ft 462 kts 299°
2026-05-03 23:09 11.16956 -85.39429 30478 ft 464 kts 299°
2026-05-03 23:09 11.18526 -85.42306 30676 ft 465 kts 299°
2026-05-03 23:10 11.20100 -85.45194 30866 ft 467 kts 299°
2026-05-03 23:10 11.21677 -85.48092 31058 ft 469 kts 299°
2026-05-03 23:10 11.23256 -85.50994 31324 ft 468 kts 299°
2026-05-03 23:10 11.24810 -85.53855 31600 ft 467 kts 298°
2026-05-03 23:11 11.26385 -85.56750 31819 ft 467 kts 298°
2026-05-03 23:11 11.27944 -85.59616 31861 ft 455 kts 298°
2026-05-03 23:11 11.29467 -85.62409 31860 ft 447 kts 298°
2026-05-03 23:12 11.32467 -85.67925 31861 ft 443 kts 298°
2026-05-03 23:12 11.35454 -85.73423 31856 ft 443 kts 298°
2026-05-03 23:13 11.38437 -85.78915 31850 ft 443 kts 298°
2026-05-03 23:13 11.41418 -85.84412 31845 ft 443 kts 298°
2026-05-03 23:14 11.44406 -85.89921 31853 ft 443 kts 298°
2026-05-03 23:14 11.47383 -85.95420 31837 ft 443 kts 298°
2026-05-03 23:15 11.50349 -86.00878 31837 ft 443 kts 298°
2026-05-03 23:15 11.53327 -86.06381 31831 ft 443 kts 298°
2026-05-03 23:16 11.56302 -86.11884 31828 ft 443 kts 298°
2026-05-03 23:16 11.59263 -86.17357 31828 ft 443 kts 298°
2026-05-03 23:17 11.62246 -86.22861 31826 ft 443 kts 298°
2026-05-03 23:17 11.65217 -86.28364 31823 ft 443 kts 298°
2026-05-03 23:18 11.68186 -86.33875 31822 ft 443 kts 298°
2026-05-03 23:18 11.71162 -86.39380 31821 ft 443 kts 298°
2026-05-03 23:19 11.74130 -86.44891 31821 ft 443 kts 298°
2026-05-03 23:19 11.77098 -86.50396 31815 ft 442 kts 298°
2026-05-03 23:20 11.80040 -86.55855 31811 ft 442 kts 298°
2026-05-03 23:20 11.83004 -86.61353 31810 ft 442 kts 298°
2026-05-03 23:21 11.85970 -86.66856 31814 ft 442 kts 298°
2026-05-03 23:21 11.88932 -86.72364 31814 ft 442 kts 298°
2026-05-03 23:22 11.93364 -86.80625 31819 ft 442 kts 298°
2026-05-03 23:22 11.96320 -86.86129 31819 ft 442 kts 298°
2026-05-03 23:23 11.99275 -86.91627 31820 ft 441 kts 298°
2026-05-03 23:23 12.02202 -86.97086 31821 ft 441 kts 298°
2026-05-03 23:24 12.05146 -87.02587 31827 ft 441 kts 298°
2026-05-03 23:24 12.08096 -87.08081 31833 ft 441 kts 298°
2026-05-03 23:25 12.11047 -87.13584 31835 ft 441 kts 298°
2026-05-03 23:25 12.13991 -87.19084 31844 ft 441 kts 298°
2026-05-03 23:26 12.16928 -87.24580 31852 ft 440 kts 298°
2026-05-03 23:26 12.19843 -87.30036 31850 ft 440 kts 298°
2026-05-03 23:27 12.22773 -87.35530 31849 ft 439 kts 298°
2026-05-03 23:27 12.25704 -87.41007 31829 ft 438 kts 298°
2026-05-03 23:28 12.28629 -87.46474 31833 ft 438 kts 298°
2026-05-03 23:28 12.31547 -87.51950 31850 ft 438 kts 298°
2026-05-03 23:29 12.34467 -87.57431 31847 ft 438 kts 298°
2026-05-03 23:29 12.37380 -87.62906 31856 ft 439 kts 298°
2026-05-03 23:30 12.40276 -87.68353 31848 ft 439 kts 298°
2026-05-03 23:30 12.43198 -87.73841 31857 ft 439 kts 298°
2026-05-03 23:31 12.46118 -87.79329 31851 ft 439 kts 298°
2026-05-03 23:31 12.49034 -87.84817 31858 ft 439 kts 298°
2026-05-03 23:32 12.51951 -87.90286 31640 ft 432 kts 298°
2026-05-03 23:32 12.53370 -87.92962 31370 ft 424 kts 298°
2026-05-03 23:32 12.54765 -87.95606 30878 ft 421 kts 298°
2026-05-03 23:33 12.56249 -87.98181 30392 ft 418 kts 306°
2026-05-03 23:33 12.58045 -88.00498 29914 ft 415 kts 309°
2026-05-03 23:33 12.59845 -88.02743 29443 ft 411 kts 309°
2026-05-03 23:33 12.61649 -88.05001 28992 ft 408 kts 309°
2026-05-03 23:34 12.63432 -88.07243 28532 ft 404 kts 309°
2026-05-03 23:34 12.65201 -88.09473 28087 ft 401 kts 309°
2026-05-03 23:34 12.66955 -88.11683 27655 ft 398 kts 309°
2026-05-03 23:34 12.68698 -88.13877 27210 ft 395 kts 309°
2026-05-03 23:35 12.70426 -88.16053 26767 ft 392 kts 309°
2026-05-03 23:35 12.72144 -88.18213 26333 ft 389 kts 310°
2026-05-03 23:35 12.73850 -88.20356 25879 ft 386 kts 310°
2026-05-03 23:35 12.75541 -88.22481 25438 ft 384 kts 310°
2026-05-03 23:36 12.77198 -88.24567 24984 ft 381 kts 310°
2026-05-03 23:36 12.78863 -88.26667 24536 ft 379 kts 310°
2026-05-03 23:36 12.80518 -88.28751 24079 ft 376 kts 310°
2026-05-03 23:36 12.82166 -88.30824 23614 ft 373 kts 310°
2026-05-03 23:37 12.83801 -88.32880 23156 ft 371 kts 310°
2026-05-03 23:37 12.85425 -88.34924 22702 ft 369 kts 310°
2026-05-03 23:37 12.87043 -88.36961 22251 ft 367 kts 310°
2026-05-03 23:37 12.88650 -88.38987 21808 ft 365 kts 310°
2026-05-03 23:38 12.90252 -88.41004 21371 ft 364 kts 310°
2026-05-03 23:38 12.91850 -88.43016 20938 ft 362 kts 310°
2026-05-03 23:38 12.93439 -88.45020 20517 ft 362 kts 310°
2026-05-03 23:38 12.95024 -88.47023 20070 ft 360 kts 310°
2026-05-03 23:39 12.96600 -88.49015 19648 ft 358 kts 310°
2026-05-03 23:39 12.98164 -88.50990 19310 ft 354 kts 311°
2026-05-03 23:39 12.99712 -88.52946 18928 ft 352 kts 311°
2026-05-03 23:39 13.01250 -88.54893 18508 ft 350 kts 311°
2026-05-03 23:40 13.02762 -88.56805 18096 ft 349 kts 311°
2026-05-03 23:40 13.04288 -88.58733 17683 ft 348 kts 311°
2026-05-03 23:40 13.05815 -88.60662 17271 ft 346 kts 311°
2026-05-03 23:40 13.07330 -88.62572 16865 ft 344 kts 311°
2026-05-03 23:41 13.08845 -88.64480 16468 ft 343 kts 311°
2026-05-03 23:41 13.10347 -88.66376 16068 ft 342 kts 311°
2026-05-03 23:41 13.11842 -88.68268 15673 ft 340 kts 311°
2026-05-03 23:41 13.13332 -88.70152 15281 ft 339 kts 310°
2026-05-03 23:42 13.14813 -88.72028 14889 ft 338 kts 310°
2026-05-03 23:42 13.16287 -88.73893 14502 ft 336 kts 310°
2026-05-03 23:42 13.17760 -88.75753 14112 ft 335 kts 310°
2026-05-03 23:42 13.19226 -88.77604 13720 ft 334 kts 310°
2026-05-03 23:43 13.20685 -88.79450 13336 ft 332 kts 310°
2026-05-03 23:43 13.22115 -88.81268 12956 ft 331 kts 310°
2026-05-03 23:43 13.23573 -88.83120 12566 ft 329 kts 310°
2026-05-03 23:43 13.24991 -88.84922 12184 ft 328 kts 309°
2026-05-03 23:44 13.26426 -88.86743 11777 ft 327 kts 310°
2026-05-03 23:44 13.27855 -88.88557 11379 ft 325 kts 309°
2026-05-03 23:44 13.29262 -88.90345 10996 ft 321 kts 310°
2026-05-03 23:44 13.30662 -88.92130 10585 ft 321 kts 310°
2026-05-03 23:45 13.32059 -88.93907 10301 ft 316 kts 310°
2026-05-03 23:45 13.33423 -88.95629 10080 ft 307 kts 310°
2026-05-03 23:45 13.34763 -88.97315 9604 ft 304 kts 311°
2026-05-03 23:45 13.36087 -88.98986 8955 ft 299 kts 310°
2026-05-03 23:46 13.37381 -89.00622 8502 ft 292 kts 310°
2026-05-03 23:46 13.38645 -89.02223 8067 ft 285 kts 310°
2026-05-03 23:46 13.39868 -89.03781 7647 ft 275 kts 310°
2026-05-03 23:46 13.41078 -89.05256 7227 ft 267 kts 319°
2026-05-03 23:47 13.42634 -89.06220 6809 ft 262 kts 346°
2026-05-03 23:47 13.44386 -89.06682 6413 ft 259 kts 342°
2026-05-03 23:47 13.46131 -89.06918 6055 ft 250 kts 14°
2026-05-03 23:47 13.47639 -89.06069 5854 ft 251 kts 50°
2026-05-03 23:48 13.48328 -89.04489 5608 ft 249 kts 86°
2026-05-03 23:48 13.48111 -89.02723 5350 ft 252 kts 104°
2026-05-03 23:48 13.47517 -89.01041 5054 ft 251 kts 115°
2026-05-03 23:48 13.46559 -88.99558 4730 ft 249 kts 133°
2026-05-03 23:49 13.45255 -88.98360 4372 ft 252 kts 137°
2026-05-03 23:49 13.44095 -88.97019 4023 ft 250 kts 122°
2026-05-03 23:49 13.43321 -88.95438 3670 ft 248 kts 107°
2026-05-03 23:49 13.42983 -88.93729 3480 ft 238 kts 92°
2026-05-03 23:50 13.42956 -88.92060 3419 ft 231 kts 90°
2026-05-03 23:50 13.42940 -88.90971 3364 ft 230 kts 90°
2026-05-03 23:50 13.42898 -88.88775 3255 ft 227 kts 90°
2026-05-03 23:50 13.42878 -88.87203 3197 ft 214 kts 85°
2026-05-03 23:51 13.43242 -88.85759 3148 ft 207 kts 63°
2026-05-03 23:51 13.44101 -88.84593 3104 ft 206 kts 40°
2026-05-03 23:51 13.45313 -88.83853 3084 ft 199 kts 19°
2026-05-03 23:51 13.46616 -88.83619 3043 ft 184 kts
2026-05-03 23:52 13.47823 -88.83832 2986 ft 171 kts 341°
2026-05-03 23:52 13.48834 -88.84391 2927 ft 162 kts 323°
2026-05-03 23:52 13.49613 -88.85207 2895 ft 160 kts 306°
2026-05-03 23:52 13.50120 -88.86205 2858 ft 160 kts 289°
2026-05-03 23:53 13.50320 -88.87326 2829 ft 160 kts 270°
2026-05-03 23:53 13.50184 -88.88454 2802 ft 158 kts 252°
2026-05-03 23:53 13.49815 -88.89513 2779 ft 157 kts 249°
2026-05-03 23:53 13.49441 -88.90562 2745 ft 156 kts 249°
2026-05-03 23:54 13.49189 -88.91271 2657 ft 156 kts 249°
2026-05-03 23:54 13.48823 -88.92299 2491 ft 154 kts 249°
2026-05-03 23:54 13.48458 -88.93326 2311 ft 152 kts 248°
2026-05-03 23:54 13.48095 -88.94342 2104 ft 150 kts 248°
2026-05-03 23:55 13.47737 -88.95349 1900 ft 149 kts 249°
2026-05-03 23:55 13.47384 -88.96342 1714 ft 147 kts 250°
2026-05-03 23:55 13.47033 -88.97328 1518 ft 146 kts 249°
2026-05-03 23:55 13.46686 -88.98302 1325 ft 144 kts 249°
2026-05-03 23:56 13.46340 -88.99271 1134 ft 146 kts 251°
2026-05-03 23:56 13.45990 -89.00254 941 ft 146 kts 251°
2026-05-03 23:56 13.45628 -89.01226 775 ft 146 kts 249°
2026-05-03 23:56 13.45276 -89.02203 538 ft 145 kts 252°
2026-05-03 23:57 13.44941 -89.03179 361 ft 145 kts 251°
2026-05-03 23:57 13.44599 -89.04151 145 ft 144 kts 250°
2026-05-03 23:57 13.44281 -89.05044 97 ft 117 kts 250°
2026-05-03 23:57 13.44041 -89.05715 91 ft 80 kts 250°
2026-05-03 23:58 13.43914 -89.06071 91 ft 34 kts 249°
2026-05-03 23:58 13.43839 -89.06278 91 ft 26 kts 251°
2026-05-03 23:58 13.43896 -89.06376 92 ft 15 kts 338°
2026-05-03 23:58 13.43980 -89.06393 92 ft 7 kts 31°
2026-05-03 23:59 13.44644 -89.04025 169 ft 144 kts 250°
2026-05-03 23:59 13.44612 -89.04116 151 ft 144 kts 250°
2026-05-03 23:59 13.44336 -89.04887 99 ft 124 kts 250°
2026-05-03 23:59 13.44640 -89.04038 166 ft 144 kts 250°
2026-05-04 00:00 13.44828 -89.03511 287 ft 145 kts 251°
2026-05-04 00:00 13.44483 -89.04473 109 ft 138 kts 250°
2026-05-04 00:00 13.44190 -89.05297 93 ft 106 kts 250°
2026-05-04 00:00 13.43985 -89.05872 91 ft 60 kts 250°